Regional Weather Roundup
Issued by NWS

Home | Current Version | Previous Version | Graphics & Text | Print | Product List | Glossary Off
Versions: 1 2 3 4 5 6 7 8 9 10 11 12 13 14 15 16 17 18 19 20 21 22 23 24 25 26 27 28 29 30 31 32 33 34 35 36 37 38 39 40 41 42 43 44 45 46 47 48 49 50

000
ASUS43 KTOP 181959
RWRKS

WEATHER ROUNDUP FOR KANSAS
NATIONAL WEATHER SERVICE GOODLAND KS
300 PM CDT WED APR 18 2018

NOTE:  "FAIR" INDICATES FEW OR NO CLOUDS BELOW 12,000 FEET WITH NO
SIGNIFICANT WEATHER AND/OR OBSTRUCTIONS TO VISIBILITY.

KSZ001>006-013>018-027>032-041>047-182100-
NORTHWEST KANSAS

CITY           SKY/WX    TMP DP  RH WIND       PRES   REMARKS
GOODLAND       MOSUNNY   59  20  22 NW30G43   30.19R
HAYS           MOSUNNY   59  29  31 N28G38    30.14R
HILL CITY      MOSUNNY   60  28  29 N29G41    30.16R
RUSSELL        MOSUNNY   58  29  33 NW31G46   30.14R
$$

KSZ061>065-074>080-084>089-182100-
SOUTHWEST KANSAS

CITY           SKY/WX    TMP DP  RH WIND       PRES   REMARKS
DODGE CITY     MOSUNNY   65  22  19 N25G41    30.16R
GARDEN CITY    SUNNY     63  17  17 N29G39    30.18S
GREAT BEND     MOSUNNY   60  30  32 NW28G39   30.14R
LIBERAL        SUNNY     65  15  14 N17G31    30.20S
$$

KSZ066>073-081>083-090>101-182100-
SOUTHEAST KANSAS

CITY           SKY/WX    TMP DP  RH WIND       PRES   REMARKS
CHANUTE        MOSUNNY   61  32  33 NW24G38   30.05R
COFFEYVILLE    SUNNY     66  32  28 NW22G36   30.04S
HUTCHINSON     SUNNY     61  29  29 NW29G37   30.12R
MEDICINE LODGE   N/A     67  25  20 N30G41    30.11R
NEWTON         MOSUNNY   57  29  34 NW36G43   30.10R
PARSONS        MOSUNNY   63  32  31 NW25G33   30.06R
WICHITA INTL   MOSUNNY   62  29  28 NW33G40   30.09R
WICHITA JABRA  SUNNY     61  29  29 NW32G40   30.09R
WICHITA MCCONL SUNNY     62  27  27 NW26G38   30.08R
WINFIELD       SUNNY     64  29  26 NW29G40   30.10R
$$

KSZ007>012-019>026-033>040-048>060-102>105-182100-
NORTHEAST KANSAS

CITY           SKY/WX    TMP DP  RH WIND       PRES   REMARKS
CONCORDIA      PTSUNNY   50  26  39 N23G33    30.13R
EMPORIA        MOSUNNY   51  28  41 NW29G40   30.09R
LAWRENCE       CLOUDY    45  30  55 NW22G33   30.08R
MANHATTAN      MOSUNNY   52  26  36 N13G35    30.11S
OLATHE IND     CLOUDY    47  31  53 NW26G37   30.06R
OLATHE EXE     CLOUDY    44  30  57 NW23G32   30.04R
SALINA         SUNNY     56  27  32 NW26G35   30.14R
TOPEKA BILLARD CLOUDY    47  29  49 NW18G31   30.08R
TOPEKA FORBES  CLOUDY    49  28  44 NW24G35   30.08R
$$




USA.gov is the U.S. government's official web portal to all federal, state and local government web resources and services.